Location: Biltmore Gardens
(41.6070°N, 83.4666°W)
Time: 14:34:43
(UTC+00:00)

PSLV R/B - Pass Details

Date: 14 July 2020
Orbit: 598 x 701 km, 97.9° (Epoch: 13 August)

Event Time Altitude Azimuth Distance (km) Brightness Sun altitude
Rises 06:19:46 0° 7° (N) 2,878 8.3 -26.1°
Reaches altitude 10° 06:21:57 10° 3° (N) 1,980 7.1 -26.0°
Enters shadow 06:25:46 51° 307° (NW) 791 4.1 -25.9°
